Wind_Speed
6 9 13 4 13 8 11 10 13 15 9 16 11 14 10 8 12 11 11 12 10 14 13 13 12 11 10 9 8 8 8 8 8 8 8 8 7 7 6 7 6 8 10 11 11 12 12 12 12
6 9 3 9 13 11 11 11 10 14 11 14 13 13 12 14 13 13 14 10 10 14 13 12 11 11 9 9 8 8 8 8 10 10 9 8 7 7 6 6 6 8 9 11 11 12 13 12 12
5 8 5 7 12 9 11 11 12 15 13 13 15 12 16 17 13 15 15 12 11 14 13 11 10 9 9 9 9 9 9 9 10 11 10 8 7 6 5 6 5 7 8 11 12 14 15 16 14
5 6 3 10 14 11 13 12 13 15 12 12 15 16 15 15 14 16 15 14 14 14 13 12 11 11 12 12 11 10 10 10 11 10 9 7 6 4 3 3 4 5 7 10 13 16 17 17 15
6 8 13 9 17 11 16 10 11 15 13 12 14 14 14 15 14 16 16 14 15 15 14 13 12 13 14 14 13 12 13 12 11 10 9 7 6 4 2 1 5 6 8 10 13 15 17 18 16
7 10 18 19 13 14 16 12 10 12 12 12 11 13 15 14 16 15 16 13 13 17 15 13 15 15 14 15 15 15 15 13 12 11 9 8 7 6 3 1 3 7 8 10 15 15 16 16 15
4 11 9 18 24 20 23 15 13 10 11 11 9 14 14 11 16 16 15 14 13 16 18 16 17 16 15 15 16 16 16 15 13 13 11 10 9 11 12 10 8 10 13 18 19 17 17 15 14
1 10 14 15 24 27 21 16 12 8 8 10 7 16 13 10 15 14 12 13 14 17 17 18 17 17 15 15 16 14 14 15 14 13 11 14 13 15 20 21 18 18 18 20 19 18 17 16 14
8 2 15 19 20 19 16 11 11 13 8 6 6 10 17 13 15 14 12 13 15 16 16 17 18 18 16 14 15 14 13 14 13 11 13 16 13 16 19 22 25 26 24 22 19 18 16 16 15
10 9 7 14 14 10 14 12 19 14 10 8 7 8 16 16 15 15 10 14 13 15 16 15 18 17 17 16 14 12 13 14 13 11 17 17 16 14 14 18 19 21 20 18 18 17 16 16 17
10 3 18 11 16 14 12 13 12 12 16 13 14 9 12 12 16 15 10 11 12 14 14 13 14 15 14 14 14 11 11 12 12 11 17 19 18 21 18 16 16 16 16 14 15 14 17 18 19
13 9 11 13 13 14 10 12 11 9 24 16 15 14 15 13 15 17 12 11 10 12 13 12 12 14 16 12 14 13 11 11 12 13 17 21 19 16 18 21 20 20 17 16 16 18 19 21 22
8 16 17 14 8 8 10 6 7 10 8 15 14 15 15 15 14 16 14 13 9 10 10 10 11 12 15 13 14 13 11 12 13 14 16 18 19 19 20 21 20 21 22 21 19 20 21 22 21
18 11 3 13 8 6 9 7 7 13 12 19 15 17 16 15 13 15 13 13 9 10 8 9 7 10 14 12 15 13 12 12 13 15 18 21 20 20 19 20 23 22 22 20 21 20 18 19 20
20 14 14 7 8 6 9 9 11 10 16 20 16 19 18 15 14 14 15 12 10 9 8 8 6 10 10 11 16 14 13 12 12 13 16 18 16 15 21 19 20 20 20 20 20 21 21 20 20
19 18 12 12 12 8 9 7 7 10 16 18 15 16 20 18 17 16 15 15 10 10 7 7 6 6 5 10 15 16 15 12 11 14 14 15 14 16 18 19 19 21 20 20 20 19 19 20 19
19 21 20 12 9 8 8 8 7 9 13 18 15 14 19 17 19 17 15 17 13 13 8 7 8 4 6 8 13 15 16 13 12 13 12 16 15 14 15 18 19 21 21 21 21 21 19 19 20
22 23 20 15 14 13 9 9 7 7 7 13 14 13 16 21 18 16 18 15 12 13 12 7 10 5 5 6 10 11 14 15 12 13 14 14 16 16 15 16 19 20 19 20 20 20 18 17 17
22 22 27 17 19 22 11 6 8 5 11 11 16 13 13 17 20 17 16 16 15 14 11 8 8 6 6 5 8 9 11 14 12 14 14 12 13 15 14 15 17 20 19 18 18 17 16 15 17
25 28 24 22 15 12 14 9 12 8 10 12 11 15 11 12 16 17 17 17 15 15 13 10 9 8 6 6 8 8 9 11 13 14 14 15 13 13 15 14 15 17 18 17 18 17 14 13 13
27 28 28 25 27 15 21 10 17 12 8 14 14 20 17 14 16 17 17 14 14 15 16 13 10 8 7 6 6 8 9 11 13 13 14 13 13 14 14 16 14 14 16 16 16 17 14 12 11
29 25 27 28 26 24 21 20 18 23 15 17 17 20 20 17 16 16 17 18 15 13 13 14 12 9 7 5 4 7 7 8 11 12 11 12 12 12 12 13 15 15 16 15 15 13 12 11 11
29 31 33 30 28 27 21 15 17 15 14 21 22 19 27 21 17 16 15 16 16 14 12 15 14 12 9 8 4 5 5 7 9 12 11 11 12 9 11 11 13 14 13 13 12 11 11 8 9
37 41 37 32 29 28 16 13 7 14 20 21 25 22 21 19 20 20 17 15 15 12 13 13 15 15 13 11 8 5 3 5 7 11 10 10 12 11 10 10 10 9 11 11 11 10 11 10 8
45 43 38 36 31 23 21 19 14 10 15 16 19 19 20 17 15 22 17 15 11 15 16 15 16 17 17 15 13 10 7 7 7 9 10 10 10 12 11 11 9 11 10 10 9 10 10 11 9
44 45 42 41 33 26 28 22 18 16 17 20 32 21 21 22 19 22 20 18 16 16 19 19 18 18 19 18 17 14 11 9 10 10 10 10 10 11 12 11 11 11 10 11 11 11 10 11 11
44 46 43 36 34 28 32 21 20 20 16 12 23 26 16 22 22 25 28 26 27 18 19 21 21 21 20 20 20 19 16 15 13 13 13 12 12 12 11 11 11 10 10 11 10 10 11 12 13
43 46 43 44 40 37 26 23 24 20 20 17 15 11 26 19 24 24 22 18 24 25 21 21 21 20 20 19 20 21 21 18 16 17 18 18 16 15 14 13 14 13 12 11 11 11 12 12 14
42 46 49 43 44 38 34 33 27 27 24 19 14 10 9 13 21 25 22 24 23 20 22 22 21 23 24 23 22 22 23 22 20 19 19 19 19 19 16 14 13 13 14 12 12 12 12 12 13
41 44 49 48 43 43 38 32 31 28 23 19 17 14 16 9 11 27 22 23 23 21 24 26 26 30 28 26 27 26 26 25 24 22 22 24 25 22 20 18 16 15 14 14 15 13 13 13 12
Wind_Direction
328 340 327 182 151 140 112 118 79 76 90 96 103 120 107 101 109 104 96 110 114 108 99 94 82 74 65 53 47 53 59 66 73 76 76 79 83 94 101 99 101 104 112 121 126 120 116 108 103
338 336 311 156 131 150 117 125 96 83 98 90 97 112 116 112 115 113 103 104 114 106 96 84 74 63 57 57 57 59 62 72 78 78 79 80 84 83 78 92 100 111 119 128 132 130 127 118 120
326 340 56 172 151 166 130 131 104 84 111 96 101 102 111 111 112 108 108 114 120 108 98 85 77 74 71 67 67 67 68 71 72 76 80 81 77 88 95 110 129 130 125 129 136 133 118 115 110
296 300 266 218 181 161 138 133 115 99 98 108 109 118 109 108 119 115 118 126 119 107 98 94 86 80 78 74 74 73 74 72 71 70 70 69 78 85 98 125 163 156 138 130 142 133 125 116 112
277 289 285 228 162 154 146 155 129 109 110 105 112 115 112 113 115 114 121 129 122 109 102 98 93 86 83 83 80 74 72 66 66 69 65 64 55 47 37 178 191 176 146 137 141 134 127 120 120
285 299 293 277 205 173 154 156 148 109 100 111 113 109 108 124 111 113 117 120 112 110 106 101 93 87 83 80 76 74 71 70 69 66 63 57 50 36 26 257 186 181 150 143 138 134 125 117 119
312 324 4 179 182 187 154 160 161 124 113 120 124 118 116 116 108 115 122 120 115 106 102 96 91 85 79 75 75 75 75 73 71 65 57 52 44 57 58 73 109 134 145 140 142 134 123 112 111
331 317 318 238 238 167 157 152 144 117 108 116 146 124 126 121 109 106 109 112 105 100 97 93 85 75 71 68 70 73 78 76 72 64 55 50 53 72 71 70 99 116 130 134 129 122 113 111 111
225 316 102 66 132 195 140 144 138 148 136 98 126 127 127 136 117 109 121 115 105 103 94 88 82 77 73 68 68 77 72 75 71 69 61 63 68 89 83 82 91 107 117 124 123 118 112 116 116
189 170 162 146 100 91 141 127 155 164 147 118 133 138 131 136 125 111 109 107 109 105 92 84 82 78 73 73 74 71 68 71 73 69 70 74 80 87 88 95 88 104 111 120 121 119 118 116 115
234 202 117 133 141 114 108 127 163 183 146 155 151 140 126 132 114 105 100 112 116 114 103 87 78 74 75 71 78 73 74 76 78 81 79 71 72 82 80 115 98 113 113 115 111 113 109 111 115
230 248 190 142 144 159 113 119 118 192 160 143 163 150 136 138 133 128 116 107 112 116 103 92 76 69 69 72 81 78 80 75 76 94 75 73 90 97 91 96 100 100 103 109 107 109 107 111 110
235 167 160 138 138 123 118 117 132 148 174 151 162 152 144 147 137 119 115 109 124 112 109 92 79 65 70 78 88 87 90 84 83 89 100 83 95 94 93 98 101 99 99 100 101 105 113 113 112
208 178 171 135 156 138 116 119 148 168 193 163 159 154 158 144 136 129 122 120 119 108 108 86 72 61 67 75 87 93 96 91 82 97 93 95 96 101 98 105 99 98 102 105 106 103 103 108 118
220 242 290 230 162 141 126 136 132 174 172 163 166 162 156 147 148 150 141 125 121 114 113 104 77 63 68 74 83 95 100 97 94 98 107 99 103 100 100 106 108 105 109 109 104 109 110 114 120
221 224 208 197 173 154 143 150 129 155 150 164 162 159 158 156 150 160 155 138 130 125 127 118 82 65 64 81 85 89 98 102 103 104 114 121 107 99 101 107 110 112 110 109 110 110 114 120 124
213 233 209 200 186 151 154 160 167 161 144 158 161 156 165 159 157 161 159 148 146 132 133 132 108 88 74 66 86 100 104 113 111 110 113 124 120 106 101 103 111 113 114 118 123 123 129 134 137
217 224 208 199 204 175 175 177 167 141 167 194 172 163 158 181 156 167 156 157 160 148 143 144 113 108 92 82 95 110 115 108 119 125 121 114 123 118 115 115 115 116 119 129 126 126 130 130 132
222 223 221 206 201 173 164 160 195 145 169 201 181 171 166 165 175 175 163 155 170 160 149 151 128 122 104 100 107 106 105 107 116 122 123 108 120 130 127 124 129 129 129 128 123 127 130 130 129
218 225 226 227 213 221 225 209 178 194 176 206 196 187 181 167 181 177 175 166 170 163 155 165 151 146 120 114 117 118 116 111 119 122 125 130 134 140 142 136 133 134 132 134 130 128 127 124 127
219 223 227 224 218 232 210 216 206 181 211 224 200 196 188 186 182 182 186 178 181 174 163 165 156 159 135 111 129 135 142 126 120 119 128 127 142 144 143 151 151 144 140 139 134 134 135 130 124
217 226 233 227 224 228 238 242 239 241 218 227 205 205 194 189 188 197 187 188 191 192 170 167 169 174 163 135 125 137 134 124 118 125 120 131 141 138 145 149 152 155 153 147 140 134 126 135 132
207 221 222 222 226 230 234 239 257 210 282 276 224 223 214 199 190 194 203 197 196 203 197 178 179 183 185 183 169 163 173 156 137 129 136 130 133 138 147 149 153 153 151 147 141 136 136 131 138
207 217 223 227 229 232 241 240 253 253 277 228 213 206 210 210 200 194 207 210 196 203 213 200 191 193 193 194 195 182 190 158 156 144 145 141 134 143 152 146 149 151 154 147 147 155 146 146 147
206 213 221 226 227 225 228 221 217 205 232 215 206 201 212 212 224 196 210 215 206 207 217 214 204 203 197 198 201 199 191 183 185 166 157 141 148 150 161 158 156 163 155 165 165 165 160 149 151
209 215 213 214 219 217 223 223 229 244 245 230 215 201 199 205 216 196 205 216 214 216 216 219 214 211 207 201 204 211 203 183 188 189 173 160 160 165 168 168 168 168 175 172 170 170 167 166 155
210 212 216 224 214 221 229 219 224 227 235 230 246 261 196 216 215 201 211 214 207 216 222 219 222 217 215 209 208 211 213 200 206 196 191 182 185 179 181 176 180 181 180 181 183 181 171 172 170
214 212 209 216 224 222 223 224 226 223 222 213 197 217 232 243 222 211 217 236 211 211 219 221 221 226 227 226 220 219 221 215 204 202 192 194 195 193 188 187 187 185 190 190 186 182 188 182 177
211 218 216 218 223 226 227 235 235 226 210 212 206 211 227 248 229 216 205 230 228 224 225 227 227 234 227 224 226 221 224 227 222 214 208 203 204 198 192 196 201 197 195 191 197 199 202 195 190
209 216 220 221 224 229 225 224 220 219 211 212 213 215 226 206 220 205 209 211 213 224 218 229 226 231 226 224 221 223 220 221 226 228 224 214 209 202 200 197 205 208 202 200 202 203 213 212 202
Height
5881 5880 5879 5879 5882 5880 5881 5883 5882 5882 5883 5881 5883 5882 5884 5886 5886 5889 5886 5886 5886 5885 5885 5886 5887 5887 5886 5886 5887 5888 5888 5887 5887 5887 5888 5888 5888 5888 5888 5889 5889 5889 5890 5889 5889 5890 5890 5890 5891
5880 5880 5879 5880 5881 5881 5883 5883 5884 5883 5885 5884 5883 5885 5885 5886 5887 5888 5888 5889 5889 5888 5888 5889 5889 5889 5889 5889 5888 5889 5888 5888 5888 5889 5889 5890 5889 5889 5889 5890 5890 5891 5891 5892 5892 5892 5892 5893 5894
5882 5882 5880 5880 5881 5883 5885 5886 5884 5884 5885 5885 5884 5887 5887 5887 5889 5889 5889 5891 5892 5891 5891 5891 5891 5891 5892 5891 5891 5890 5890 5890 5890 5891 5890 5890 5890 5890 5889 5890 5889 5891 5893 5893 5893 5893 5895 5896 5897
5882 5883 5882 5880 5881 5883 5884 5887 5885 5884 5886 5889 5887 5888 5889 5889 5890 5891 5891 5893 5894 5894 5893 5892 5892 5892 5892 5893 5894 5893 5893 5892 5892 5892 5892 5891 5892 5892 5891 5891 5891 5891 5893 5895 5895 5896 5896 5898 5899
5881 5880 5879 5874 5879 5882 5885 5886 5886 5885 5887 5888 5888 5889 5890 5892 5893 5893 5893 5895 5895 5894 5895 5896 5895 5895 5895 5895 5895 5895 5896 5895 5894 5893 5893 5892 5893 5893 5891 5890 5890 5892 5894 5896 5898 5898 5898 5900 5901
5882 5881 5876 5875 5880 5876 5884 5887 5889 5886 5887 5889 5891 5891 5893 5895 5895 5896 5897 5898 5897 5895 5897 5897 5897 5898 5898 5897 5897 5898 5898 5898 5897 5896 5895 5894 5894 5892 5890 5890 5890 5892 5896 5898 5900 5901 5901 5902 5903
5881 5877 5873 5870 5877 5880 5883 5888 5890 5888 5889 5892 5894 5893 5896 5899 5898 5899 5900 5900 5900 5899 5899 5900 5900 5900 5900 5900 5901 5900 5901 5901 5900 5899 5898 5897 5896 5895 5892 5891 5892 5892 5895 5899 5901 5903 5904 5904 5907
5882 5874 5875 5876 5876 5873 5886 5888 5889 5891 5892 5894 5897 5894 5898 5902 5901 5902 5904 5903 5903 5902 5902 5903 5903 5904 5904 5904 5904 5903 5903 5903 5902 5901 5899 5898 5898 5897 5896 5892 5892 5895 5898 5902 5905 5907 5908 5909 5910
5880 5882 5877 5872 5874 5879 5884 5887 5890 5891 5894 5896 5897 5897 5898 5902 5903 5904 5906 5906 5906 5906 5906 5906 5906 5907 5907 5907 5907 5907 5906 5905 5904 5903 5901 5902 5901 5901 5900 5899 5898 5900 5903 5905 5908 5911 5911 5912 5913
5881 5881 5879 5880 5882 5883 5885 5888 5890 5893 5896 5898 5899 5900 5900 5903 5904 5905 5909 5909 5909 5909 5911 5910 5910 5910 5910 5911 5910 5909 5909 5908 5907 5906 5905 5905 5905 5904 5904 5904 5904 5906 5908 5910 5911 5913 5914 5914 5914
5880 5875 5878 5881 5880 5885 5888 5888 5890 5893 5895 5898 5898 5900 5904 5903 5904 5906 5911 5912 5912 5913 5913 5913 5913 5913 5913 5914 5913 5913 5912 5910 5910 5909 5908 5909 5909 5909 5905 5907 5909 5910 5911 5913 5914 5915 5916 5917 5917
5879 5878 5883 5885 5885 5887 5886 5888 5890 5890 5894 5898 5901 5901 5904 5905 5906 5908 5912 5915 5915 5916 5916 5916 5916 5916 5916 5917 5916 5916 5915 5914 5914 5912 5911 5912 5913 5912 5912 5912 5912 5913 5914 5916 5917 5918 5918 5920 5920
5879 5881 5882 5885 5887 5886 5886 5889 5889 5891 5893 5899 5902 5903 5906 5906 5908 5910 5911 5916 5917 5919 5919 5920 5919 5919 5919 5919 5918 5918 5917 5917 5917 5915 5913 5916 5916 5917 5917 5917 5916 5916 5917 5919 5920 5922 5922 5922 5924
5879 5878 5882 5885 5888 5888 5887 5890 5889 5892 5895 5899 5902 5905 5906 5906 5909 5911 5912 5915 5919 5921 5921 5922 5923 5923 5921 5922 5921 5919 5919 5919 5920 5919 5918 5918 5920 5921 5920 5921 5921 5922 5922 5923 5924 5925 5927 5927 5928
5879 5881 5882 5885 5886 5886 5888 5890 5891 5892 5894 5899 5902 5906 5906 5907 5909 5911 5911 5915 5918 5920 5922 5924 5925 5925 5925 5925 5923 5923 5922 5922 5924 5923 5922 5922 5924 5925 5924 5925 5924 5925 5927 5928 5928 5929 5929 5931 5933
5878 5881 5881 5874 5883 5887 5888 5889 5890 5893 5896 5898 5902 5906 5907 5909 5910 5912 5914 5917 5919 5921 5923 5923 5925 5926 5928 5927 5926 5926 5925 5927 5928 5928 5927 5927 5927 5927 5928 5927 5929 5929 5930 5931 5933 5933 5933 5934 5936
5876 5879 5880 5882 5882 5886 5889 5889 5890 5891 5895 5899 5901 5904 5905 5908 5910 5911 5915 5916 5919 5922 5923 5924 5926 5927 5929 5929 5928 5929 5929 5930 5931 5931 5931 5930 5930 5930 5930 5931 5932 5932 5933 5935 5936 5937 5939 5940 5940
5873 5875 5877 5879 5881 5884 5887 5888 5889 5891 5893 5894 5901 5903 5905 5908 5909 5911 5914 5917 5919 5923 5925 5926 5925 5927 5929 5931 5930 5931 5932 5932 5933 5934 5934 5934 5934 5934 5935 5934 5934 5935 5937 5938 5939 5940 5942 5943 5944
5868 5872 5874 5877 5868 5877 5883 5888 5889 5889 5892 5896 5901 5903 5905 5906 5910 5910 5914 5916 5919 5922 5924 5927 5928 5928 5929 5932 5934 5933 5933 5933 5935 5935 5936 5936 5936 5937 5939 5939 5939 5939 5940 5941 5942 5944 5946 5946 5946
5865 5869 5873 5876 5876 5878 5882 5884 5887 5889 5891 5894 5897 5902 5904 5907 5909 5911 5913 5915 5916 5920 5923 5926 5929 5930 5930 5932 5934 5934 5934 5936 5936 5937 5939 5940 5940 5940 5941 5941 5942 5942 5942 5943 5945 5946 5948 5949 5949
5862 5866 5870 5874 5874 5872 5877 5882 5884 5886 5889 5892 5895 5900 5902 5907 5908 5909 5912 5914 5916 5917 5921 5924 5927 5931 5932 5933 5934 5936 5937 5936 5937 5938 5940 5942 5943 5942 5943 5944 5945 5946 5946 5947 5947 5947 5948 5948 5950
5860 5863 5865 5869 5874 5875 5877 5882 5881 5881 5886 5888 5892 5897 5900 5905 5907 5909 5911 5914 5914 5916 5919 5922 5926 5929 5931 5932 5934 5935 5936 5937 5938 5939 5940 5942 5945 5946 5945 5946 5947 5949 5948 5949 5949 5949 5949 5950 5950
5860 5860 5858 5863 5869 5870 5875 5879 5879 5881 5882 5887 5890 5893 5897 5901 5906 5907 5910 5912 5915 5916 5919 5921 5924 5927 5930 5931 5933 5935 5937 5938 5939 5940 5941 5942 5943 5946 5948 5949 5950 5949 5950 5951 5950 5950 5950 5951 5952
5851 5849 5854 5859 5864 5868 5872 5875 5876 5877 5880 5880 5887 5891 5895 5899 5902 5905 5907 5911 5914 5916 5918 5921 5922 5925 5929 5931 5932 5934 5935 5938 5940 5941 5942 5943 5943 5945 5948 5949 5950 5951 5951 5951 5952 5953 5952 5952 5954
5841 5845 5851 5856 5857 5868 5866 5871 5873 5875 5877 5882 5885 5889 5893 5894 5897 5901 5905 5909 5912 5915 5916 5919 5922 5923 5926 5930 5932 5933 5935 5938 5939 5941 5942 5943 5944 5945 5947 5948 5949 5951 5951 5952 5954 5954 5953 5953 5954
5839 5841 5847 5849 5856 5860 5860 5865 5871 5873 5874 5879 5879 5886 5887 5891 5893 5898 5903 5906 5908 5912 5914 5917 5921 5922 5923 5927 5930 5932 5934 5935 5938 5940 5942 5942 5944 5946 5947 5948 5948 5950 5952 5953 5954 5954 5954 5954 5954
5834 5836 5844 5847 5850 5854 5856 5864 5866 5869 5873 5876 5879 5883 5886 5889 5889 5894 5899 5901 5905 5907 5911 5914 5918 5921 5922 5923 5927 5929 5932 5933 5936 5938 5941 5942 5943 5945 5946 5947 5948 5949 5951 5952 5953 5954 5954 5955 5955
5830 5834 5837 5841 5845 5849 5854 5860 5864 5867 5872 5874 5875 5879 5882 5884 5887 5889 5895 5898 5899 5903 5905 5911 5917 5921 5922 5923 5924 5928 5930 5931 5933 5935 5936 5938 5941 5944 5946 5947 5948 5948 5949 5951 5952 5953 5955 5956 5956
5824 5828 5833 5838 5841 5845 5852 5856 5861 5864 5867 5870 5873 5876 5878 5881 5883 5887 5890 5895 5898 5900 5903 5906 5911 5911 5917 5920 5920 5922 5927 5931 5931 5932 5934 5935 5938 5941 5943 5946 5947 5948 5948 5950 5951 5952 5954 5955 5956
5818 5823 5828 5831 5836 5840 5845 5853 5857 5859 5863 5866 5869 5873 5876 5878 5879 5884 5887 5890 5893 5896 5901 5902 5906 5908 5911 5914 5916 5917 5919 5925 5928 5930 5931 5931 5933 5936 5938 5940 5943 5946 5947 5948 5949 5950 5952 5954 5955